Stations météo

Publicité
Hurguada, Egypte (62463): Température de l'air & dewpoint: 10.08.2017 17:00:00 - 16.08.2017 17:00:00 (EET)Hurguada, Egypte (62463): Vitesse du vent: 10.08.2017 17:00:00 - 16.08.2017 17:00:00 (EET)Hurguada, Egypte (62463): Direction du vent: 10.08.2017 17:00:00 - 16.08.2017 17:00:00 (EET)Hurguada, Egypte (62463): reduced air pressure: 10.08.2017 17:00:00 - 16.08.2017 17:00:00 (EET)Hurguada, Egypte (62463): visibility: 10.08.2017 17:00:00 - 16.08.2017 17:00:00 (EET)
Date & Time tt [°C] td [°C] ff [km/h] ff [knt] dd ppp [hPa] vv [km]
16.08.2017 17:00:00 - - - - - - -
16.08.2017 16:00:00 - - - - - - -
16.08.2017 15:00:00 - - - - - - -
16.08.2017 14:00:00 36,3 16,1 26 14 NNE 1002,5 10
16.08.2017 13:00:00 - - - - - - -
16.08.2017 12:00:00 - - - - - - -
16.08.2017 11:00:00 35,0 17,3 31 17 N 1003,7 10
16.08.2017 10:00:00 - - - - - - -
16.08.2017 09:00:00 - - - - - - -
16.08.2017 08:00:00 31,3 18,3 32 17 NNW 1004,1 10
16.08.2017 07:00:00 - - - - - - -
16.08.2017 06:00:00 - - - - - - -
16.08.2017 05:00:00 28,3 19,2 24 13 NW 1003,5 10
16.08.2017 04:00:00 - - - - - - -
16.08.2017 03:00:00 - - - - - - -
16.08.2017 02:00:00 30,6 15,8 26 14 NW 1002,5 10
16.08.2017 01:00:00 - - - - - - -
16.08.2017 00:00:00 - - - - - - -
15.08.2017 23:00:00 32,0 10,7 21 11 NW 1003,3 10
15.08.2017 22:00:00 - - - - - - -
15.08.2017 21:00:00 - - - - - - -
15.08.2017 20:00:00 33,5 13,5 29 16 NNW 1003,3 10
15.08.2017 19:00:00 - - - - - - -
15.08.2017 18:00:00 - - - - - - -
15.08.2017 17:00:00 36,6 12,8 31 17 N 1002,7 10
15.08.2017 16:00:00 - - - - - - -
15.08.2017 15:00:00 - - - - - - -
15.08.2017 14:00:00 38,4 14,9 34 18 N 1003,5 10
15.08.2017 13:00:00 - - - - - - -
15.08.2017 12:00:00 - - - - - - -
15.08.2017 11:00:00 36,4 17,5 44 24 N 1005,4 10
15.08.2017 10:00:00 - - - - - - -
15.08.2017 09:00:00 - - - - - - -
15.08.2017 08:00:00 - - - - - - -
15.08.2017 07:00:00 - - - - - - -
15.08.2017 06:00:00 - - - - - - -
15.08.2017 05:00:00 - - - - - - -
15.08.2017 04:00:00 - - - - - - -
15.08.2017 03:00:00 - - - - - - -
15.08.2017 02:00:00 32,0 16,9 34 18 NW 1005,5 10
15.08.2017 01:00:00 - - - - - - -
15.08.2017 00:00:00 - - - - - - -
14.08.2017 23:00:00 34,3 9,5 22 12 NNW 1006,2 10
14.08.2017 22:00:00 - - - - - - -
14.08.2017 21:00:00 - - - - - - -
14.08.2017 20:00:00 34,8 15,2 24 13 NNW 1004,9 10
14.08.2017 19:00:00 - - - - - - -
14.08.2017 18:00:00 - - - - - - -
14.08.2017 17:00:00 38,0 12,6 28 15 N 1004,6 10
14.08.2017 16:00:00 - - - - - - -
14.08.2017 15:00:00 - - - - - - -
14.08.2017 14:00:00 40,0 14,9 39 21 N 1005,0 10
14.08.2017 13:00:00 - - - - - - -
14.08.2017 12:00:00 - - - - - - -
14.08.2017 11:00:00 38,7 16,3 39 21 N 1006,3 10
14.08.2017 10:00:00 - - - - - - -
14.08.2017 09:00:00 - - - - - - -
14.08.2017 08:00:00 35,6 14,4 31 17 NW 1006,5 10
14.08.2017 07:00:00 - - - - - - -
14.08.2017 06:00:00 - - - - - - -
14.08.2017 05:00:00 30,7 14,3 24 13 NW 1005,2 10
14.08.2017 04:00:00 - - - - - - -
14.08.2017 03:00:00 - - - - - - -
14.08.2017 02:00:00 32,3 13,5 21 11 W 1004,7 10
14.08.2017 01:00:00 - - - - - - -
14.08.2017 00:00:00 - - - - - - -
13.08.2017 23:00:00 34,0 7,2 13 7 WNW 1005,3 10
13.08.2017 22:00:00 - - - - - - -
13.08.2017 21:00:00 - - - - - - -
13.08.2017 20:00:00 34,7 13,6 21 11 N 1004,1 10
13.08.2017 19:00:00 - - - - - - -
13.08.2017 18:00:00 - - - - - - -
13.08.2017 17:00:00 39,1 14,2 31 17 N 1002,4 10
13.08.2017 16:00:00 - - - - - - -
13.08.2017 15:00:00 - - - - - - -
13.08.2017 14:00:00 39,5 17,0 34 18 E 1003,4 10
13.08.2017 13:00:00 - - - - - - -
13.08.2017 12:00:00 - - - - - - -
13.08.2017 11:00:00 36,0 21,8 34 18 E 1004,9 10
13.08.2017 10:00:00 - - - - - - -
13.08.2017 09:00:00 - - - - - - -
13.08.2017 08:00:00 33,2 19,9 11 6 NW 1004,7 10
13.08.2017 07:00:00 - - - - - - -
13.08.2017 06:00:00 - - - - - - -
13.08.2017 05:00:00 30,4 20,9 26 14 WNW 1003,5 10
13.08.2017 04:00:00 - - - - - - -
13.08.2017 03:00:00 - - - - - - -
13.08.2017 02:00:00 32,8 17,8 29 16 NW 1003,2 10
13.08.2017 01:00:00 - - - - - - -
13.08.2017 00:00:00 - - - - - - -
12.08.2017 23:00:00 34,7 12,4 28 15 WNW 1003,6 10
12.08.2017 22:00:00 - - - - - - -
12.08.2017 21:00:00 - - - - - - -
12.08.2017 20:00:00 33,9 16,3 16 9 N 1003,1 10
12.08.2017 19:00:00 - - - - - - -
12.08.2017 18:00:00 - - - - - - -
12.08.2017 17:00:00 - - - - - - -
12.08.2017 16:00:00 - - - - - - -
12.08.2017 15:00:00 - - - - - - -
12.08.2017 14:00:00 40,6 11,7 42 23 N 1002,1 10
12.08.2017 13:00:00 - - - - - - -
12.08.2017 12:00:00 - - - - - - -
12.08.2017 11:00:00 38,7 13,2 35 19 N 1003,3 10
12.08.2017 10:00:00 - - - - - - -
12.08.2017 09:00:00 - - - - - - -
12.08.2017 08:00:00 33,4 20,5 37 20 NNW 1003,6 10
12.08.2017 07:00:00 - - - - - - -
12.08.2017 06:00:00 - - - - - - -
12.08.2017 05:00:00 31,2 20,6 34 18 NW 1002,9 10
12.08.2017 04:00:00 - - - - - - -
12.08.2017 03:00:00 - - - - - - -
12.08.2017 02:00:00 32,0 19,0 22 12 NNW 1002,7 10
12.08.2017 01:00:00 - - - - - - -
12.08.2017 00:00:00 - - - - - - -
11.08.2017 23:00:00 34,1 13,0 31 17 WNW 1003,5 10
11.08.2017 22:00:00 - - - - - - -
11.08.2017 21:00:00 - - - - - - -
11.08.2017 20:00:00 33,4 17,1 21 11 N 1003,0 10
11.08.2017 19:00:00 - - - - - - -
11.08.2017 18:00:00 - - - - - - -
11.08.2017 17:00:00 - - - - - - -
11.08.2017 16:00:00 - - - - - - -
11.08.2017 15:00:00 - - - - - - -
11.08.2017 14:00:00 42,1 6,8 39 21 N 1002,7 10
11.08.2017 13:00:00 - - - - - - -
11.08.2017 12:00:00 - - - - - - -
11.08.2017 11:00:00 38,7 12,5 42 23 N 1004,1 10
11.08.2017 10:00:00 - - - - - - -
11.08.2017 09:00:00 - - - - - - -
11.08.2017 08:00:00 33,0 18,1 34 18 NNW 1004,4 10
11.08.2017 07:00:00 - - - - - - -
11.08.2017 06:00:00 - - - - - - -
11.08.2017 05:00:00 30,2 17,9 34 18 WNW 1003,0 10
11.08.2017 04:00:00 - - - - - - -
11.08.2017 03:00:00 - - - - - - -
11.08.2017 02:00:00 31,8 15,7 26 14 WNW 1003,5 10
11.08.2017 01:00:00 - - - - - - -
11.08.2017 00:00:00 - - - - - - -
10.08.2017 23:00:00 34,0 9,9 22 12 NW 1004,6 10
10.08.2017 22:00:00 - - - - - - -
10.08.2017 21:00:00 - - - - - - -
10.08.2017 20:00:00 35,4 13,5 34 18 N 1003,4 10
10.08.2017 19:00:00 - - - - - - -
10.08.2017 18:00:00 - - - - - - -
10.08.2017 17:00:00 40,0 9,0 39 21 N 1002,5 10

tt = Température de l'air
td = dewpoint
ff = Vitesse du vent
dd = Direction du vent
ppp = reduced air pressure
vv = visibility

stations d'obs. à proximité